Date String (YYYY-MM-DD hh:mm:ss) UTC,Instrument flags,Ambient pressure (hPa),Sample flow (lpm),Bypass flow (lpm),Sample temperature (°C),Ambient temperature (°C),ASC tube jacket temperature (°C),LED temperature (°C),Box temperature (°C),Sample RH (%),Mass concentration (μg/m³),Mass concentration (μg/m³)
DateTimeUTC,F1_M11,P_M11,Q1_M11,Q2_M11,T1_M11,T2_M11,T3_M11,T4_M11,T5_M11,U1_M11,X0_M11,X2_M11
2021-08-16 03:00:00,,0829.5,5.00,0.00,29.4,28.6,00.0,38.3,31.3,24.7,0017.51,0010.81
2021-08-16 03:01:00,,0829.5,5.00,0.00,29.4,28.3,00.0,38.3,31.2,24.8,0017.02,0010.84
2021-08-16 03:02:00,,0829.5,5.00,0.00,29.3,26.4,00.0,38.3,30.7,24.9,0016.92,0010.88
2021-08-16 03:03:00,,0829.5,4.99,0.00,29.1,25.4,00.0,38.2,30.3,25.1,0017.24,0010.91
2021-08-16 03:04:00,,0829.5,5.00,0.00,29.0,25.6,00.0,38.2,30.4,25.3,0016.79,0010.95
2021-08-16 03:05:00,,0829.5,5.00,0.00,29.0,26.1,00.0,38.2,30.5,25.4,0017.18,0010.93
2021-08-16 03:06:00,,0829.5,4.99,0.00,29.0,26.5,00.0,38.1,30.6,25.6,0017.65,0010.90
2021-08-16 03:07:00,,0829.5,5.00,0.00,29.0,26.9,00.0,38.1,30.7,25.6,0017.86,0010.88
2021-08-16 03:08:00,,0829.5,5.01,0.00,29.0,27.3,00.0,38.1,30.8,25.8,0017.83,0010.84
2021-08-16 03:09:00,,0829.5,4.99,0.00,29.1,27.6,00.0,38.1,30.9,25.8,0017.82,0010.84
2021-08-16 03:10:00,,0829.5,5.00,0.00,29.1,27.8,00.0,38.1,31.0,25.7,0017.80,0010.85
2021-08-16 03:11:00,,0829.6,4.99,0.00,29.1,28.0,00.0,38.2,31.0,25.7,0017.98,0010.86
2021-08-16 03:12:00,,0829.5,5.00,0.00,29.2,28.2,00.0,38.2,31.1,25.6,0018.59,0010.83
2021-08-16 03:13:00,,0829.6,5.01,0.00,29.3,28.3,00.0,38.2,31.2,25.4,0018.42,0010.81
2021-08-16 03:14:00,,0829.6,5.00,0.00,29.3,28.5,00.0,38.2,31.2,25.3,0018.86,0010.83
2021-08-16 03:15:00,,0829.5,5.00,0.00,29.3,28.6,00.0,38.3,31.3,25.2,0019.68,0010.85
2021-08-16 03:16:00,,0829.5,4.99,0.00,29.4,28.7,00.0,38.3,31.3,25.1,0019.05,0010.87
2021-08-16 03:17:00,,0829.5,5.01,0.00,29.4,28.2,00.0,38.3,31.3,25.0,0018.37,0010.93
2021-08-16 03:18:00,,0829.6,5.00,0.00,29.3,26.4,00.0,38.3,30.8,25.1,0018.30,0010.96
2021-08-16 03:19:00,,0829.6,5.00,0.00,29.2,25.4,00.0,38.3,30.5,25.5,0018.95,0010.94
2021-08-16 03:20:00,,0829.6,5.00,0.00,29.1,25.7,00.0,38.3,30.5,26.0,0019.00,0010.91
2021-08-16 03:21:00,,0829.6,5.01,0.00,29.0,26.1,00.0,38.2,30.6,26.1,0018.94,0010.86
2021-08-16 03:22:00,,0829.6,5.00,0.00,29.0,26.5,00.0,38.2,30.7,25.9,0019.40,0010.84
2021-08-16 03:23:00,,0829.6,5.00,0.00,29.0,26.9,00.0,38.1,30.8,25.7,0018.71,0010.82
2021-08-16 03:24:00,,0829.6,5.00,0.00,29.0,27.3,00.0,38.1,30.8,25.5,0018.97,0010.77
2021-08-16 03:25:00,,0829.6,4.99,0.00,29.1,27.6,00.0,38.1,30.9,25.3,0018.39,0010.69
2021-08-16 03:26:00,,0829.6,5.02,0.00,29.1,27.8,00.0,38.2,31.0,25.3,0018.79,0010.70
2021-08-16 03:27:00,,0829.5,4.99,0.00,29.1,28.0,00.0,38.2,31.0,25.0,0019.56,0010.68
2021-08-16 03:28:00,,0829.5,5.01,0.00,29.2,28.2,00.0,38.2,31.1,25.1,0019.59,0010.62
2021-08-16 03:29:00,,0829.5,5.00,0.00,29.2,28.3,00.0,38.2,31.2,25.1,0019.43,0010.57
2021-08-16 03:30:00,,0829.5,5.00,0.00,29.3,28.4,00.0,38.2,31.2,24.9,0018.68,0010.53
2021-08-16 03:31:00,,0829.6,4.99,0.00,29.3,28.5,00.0,38.3,31.3,24.6,0019.38,0010.51
2021-08-16 03:32:00,,0829.6,5.02,0.00,29.4,28.6,00.0,38.3,31.3,24.5,0019.59,0010.50
2021-08-16 03:33:00,,0829.6,4.99,0.00,29.4,28.7,00.0,38.3,31.3,24.2,0018.97,0010.53
2021-08-16 03:34:00,,0829.5,5.01,0.00,29.4,27.4,00.0,38.3,31.0,24.0,0018.93,0010.57
2021-08-16 03:35:00,,0829.6,5.00,0.00,29.2,25.7,00.0,38.3,30.5,24.1,0019.00,0010.63
2021-08-16 03:36:00,,0829.5,5.00,0.00,29.1,25.4,00.0,38.3,30.4,24.2,0018.81,0010.62
2021-08-16 03:37:00,,0829.5,4.99,0.00,29.0,25.8,00.0,38.2,30.5,24.5,0017.78,0010.56
2021-08-16 03:38:00,,0829.5,5.01,0.00,29.0,26.3,00.0,38.2,30.6,24.7,0017.32,0010.57
2021-08-16 03:39:00,,0829.6,4.99,0.00,29.0,26.7,00.0,38.2,30.7,24.7,0017.00,0010.56
2021-08-16 03:40:00,,0829.6,5.01,0.00,29.0,27.1,00.0,38.1,30.8,24.7,0017.25,0010.58
2021-08-16 03:41:00,,0829.6,4.99,0.00,29.0,27.4,00.0,38.1,30.9,24.6,0018.31,0010.60
2021-08-16 03:42:00,,0829.6,4.99,0.00,29.1,27.7,00.0,38.1,30.9,24.5,0019.61,0010.60
2021-08-16 03:43:00,,0829.5,5.02,0.00,29.1,27.9,00.0,38.2,31.0,24.5,0019.76,0010.61
2021-08-16 03:44:00,,0829.6,4.99,0.00,29.2,28.1,00.0,38.2,31.0,24.4,0019.69,0010.55
2021-08-16 03:45:00,,0829.6,5.00,0.00,29.2,28.2,00.0,38.2,31.1,24.4,0019.82,0010.54
2021-08-16 03:46:00,,0829.6,5.01,0.00,29.3,28.3,00.0,38.2,31.2,24.3,0019.58,0010.56
2021-08-16 03:47:00,,0829.6,4.99,0.00,29.3,28.5,00.0,38.2,31.2,24.4,0019.57,0010.59
2021-08-16 03:48:00,,0829.6,5.01,0.00,29.3,28.5,00.0,38.3,31.3,24.1,0019.69,0010.63
2021-08-16 03:49:00,,0829.5,4.99,0.00,29.4,28.6,00.0,38.3,31.3,24.1,0019.79,0010.64
2021-08-16 03:50:00,,0829.6,4.99,0.00,29.5,28.7,00.0,38.3,31.4,24.1,0020.78,0010.66
2021-08-16 03:51:00,,0830.0,4.99,0.00,29.5,28.5,00.0,38.4,31.3,24.0,0020.70,0010.68
2021-08-16 03:52:00,,0829.7,5.01,0.00,29.4,26.8,00.0,38.3,30.8,23.9,0020.39,0010.73
2021-08-16 03:53:00,,0829.6,4.99,0.00,29.2,25.5,00.0,38.3,30.5,24.1,0019.34,0010.77
2021-08-16 03:54:00,,0829.6,5.00,0.00,29.1,25.7,00.0,38.3,30.5,24.4,0019.53,0010.85
2021-08-16 03:55:00,,0829.6,5.01,0.00,29.0,26.1,00.0,38.3,30.6,24.5,0019.93,0010.91
2021-08-16 03:56:00,,0829.7,4.99,0.00,29.0,26.6,00.0,38.2,30.7,24.7,0020.08,0010.98
2021-08-16 03:57:00,,0829.5,4.99,0.00,29.0,26.9,00.0,38.2,30.8,25.1,0020.07,0010.93
2021-08-16 03:58:00,,0829.8,5.01,0.00,29.1,27.3,00.0,38.2,30.8,25.3,0020.48,0010.96
2021-08-16 03:59:00,,0829.7,4.99,0.00,29.1,27.6,00.0,38.2,30.9,25.8,0020.25,0010.97
